This is the latest recevied weather packets stored in our database for station/object N4DBJ. If no packets are shown the sender has not sent any weather packets the latest 10 day(s).
| Time | Temp. | Humidity | Pressure | Rain* | Wind** | Luminosity | Snow |
|---|---|---|---|---|---|---|---|
| 1777642729 | 11.67° C | 90% | 1013.1 hPa | 0 mm | - | 493 W/m² | - |
| 1777642426 | 10° C | 95% | 1013.1 hPa | 0 mm | - | 489 W/m² | - |
| 1777642122 | 9.44° C | 99% | 1013.1 hPa | 0 mm | - | 60 W/m² | - |
| 1777641818 | 9.44° C | 99% | 1013.1 hPa | 0 mm | - | 66 W/m² | - |
| 1777641514 | 8.89° C | 99% | 1013.2 hPa | 0 mm | - | 75 W/m² | - |
| 1777641209 | 8.89° C | 99% | 1013 hPa | 0 mm | - | 76 W/m² | - |
| 1777640906 | 8.33° C | 99% | 1013.2 hPa | 0 mm | - | 51 W/m² | - |
| 1777640603 | 7.78° C | 99% | 1012.9 hPa | 0 mm | - | 50 W/m² | - |
| 1777640299 | 7.78° C | 99% | 1013.1 hPa | 0 mm | - | 49 W/m² | - |
| 1777639996 | 7.78° C | 99% | 1013.2 hPa | 0 mm | - | 48 W/m² | - |
| 1777639693 | 7.22° C | 99% | 1013.2 hPa | 0 mm | - | 46 W/m² | - |
| 1777639391 | 6.67° C | 99% | 1013.2 hPa | 0 mm | - | 44 W/m² | - |
| 1777639091 | 6.67° C | 99% | 1013.2 hPa | 0 mm | - | 43 W/m² | - |
| 1777638789 | 6.11° C | 99% | 1013.2 hPa | 0 mm | - | 42 W/m² | - |
| 1777638483 | 6.11° C | 99% | 1013.1 hPa | 0 mm | - | 40 W/m² | - |
| 1777638181 | 5.56° C | 99% | 1013.1 hPa | 0 mm | - | 38 W/m² | - |
| 1777637876 | 5° C | 99% | 1013.3 hPa | 0 mm | - | 37 W/m² | - |
| 1777637573 | 4.44° C | 99% | 1013 hPa | 0 mm | - | 35 W/m² | - |
| 1777637270 | 4.44° C | 99% | 1012.9 hPa | 0 mm | - | 32 W/m² | - |
| 1777636967 | 4.44° C | 99% | 1013.2 hPa | 0 mm | - | 32 W/m² | - |
| 1777636663 | 3.89° C | 99% | 1013 hPa | 0 mm | - | 29 W/m² | - |
| 1777636359 | 3.89° C | 99% | 1012.8 hPa | 0 mm | - | 27 W/m² | - |
| 1777636059 | 3.89° C | 99% | 1012.8 hPa | 0 mm | - | 26 W/m² | - |
| 1777635755 | 3.89° C | 99% | 1012.8 hPa | 0 mm | - | 24 W/m² | - |
| 1777635452 | 3.89° C | 99% | 1012.6 hPa | 0 mm | - | 23 W/m² | - |
* Rain latest hour (hover to see other rain measurements)
** Current wind speed in m/s (hover to see current wind gust speed)